Location: Olda
(45.8833°N, 9.5500°E)
Time: 14:59:39
(UTC+00:00)

SL-08 RB Rocket - Pass Details

Date: 03 March 2021
Orbit: 647 x 683 km, 97.8° (Epoch: 11 April)

Event Time Altitude Azimuth Distance (km) Brightness Sun altitude
Rises 18:49:46 0° 176° (S) 2,962 6.9 -17.9°
Reaches altitude 10° 18:52:00 10° 181° (S) 2,060 6.1 -18.3°
Maximum altitude 18:56:25 57° 260° (W) 780 4.3 -19.0°
Drops below altitude 10° 19:00:56 10° 339° (NNW) 2,098 6.7 -19.8°
Sets 19:03:14 0° 344° (NNW) 3,022 7.5 -20.2°
